{"data":{"norad_id":63599,"epoch":"2026-05-25T05:54:36.049248Z","epoch_age_seconds":60997,"freshness":"FRESH","line1":"1 63599U 25078A   26145.24625057 -.00000002  00000+0  58662-4 0  9996","line2":"2 63599  99.6900 152.8197 0001233  88.7619 271.3661 13.57247748 54427","mean_motion":13.57247748,"eccentricity":0.0001233,"inclination_deg":99.69,"raan_deg":152.8197,"arg_perigee_deg":88.7619,"mean_anomaly_deg":271.3661,"bstar":5.8662e-5,"rev_number":5442,"period_min":106.09706312808,"perigee_km":1044.7959276313,"apogee_km":1046.6266486192,"semimajor_km":7423.8482881252,"source":"CELESTRAK","updated_at":"2026-05-25T13:38:03.844741Z"}}